www.pogodaiklimat.ru

Погода и климат >> Архив погоды >> Украина >> Харьков


АРХИВ ПОГОДЫ в Харькове

Время (UTC), дата Ветер
(напр.,м/с)
 
Видим.   Явления Облачность Т
(С)
Тd
(С)
f
(%)
Тe
(С)
Тes
(С)
Комфортность P
(гПа)
Po
(гПа)
Тmin
(С)
Tmax
(С)
R
(мм)
S
(см)
18 20.03 З 3 10 км слабый ливневой дождь 10/10 480 м
[Cb cap]
+4.3 +2.3 87 +1 +1 по сезону 1008.4 989.4 +6.5 0.0
21 20.03 З 3 10 км {ливн. осадки} 10/10 270 м
[Sc]
+3.9 +2.7 92 0 0 по сезону 1009.4 990.4
00 21.03 З 3 10 км {ливн. осадки} 10/10 700 м
[Sc]
+3.7 +2.2 90 -0 -0 по сезону 1010.0 991.0
03 21.03 СЗ 3 10 км слабый дождь 10/10 300 м
[Sc]
+3.4 +2.4 93 -1 -1 по сезону 1011.1 992.0
06 21.03 СЗ 3 10 км {ливн. осадки, дождь} 10/10 300 м
[Sc]
+3.9 +2.4 90 0 0 по сезону 1012.7 993.6 +3.4 0.5
09 21.03 СЗ 4 10 км в посл. час дождь 9/9 300 м
[Sc]
+5.4 +2.2 80 +1 +2 по сезону 1013.9 994.9
12 21.03 С 4 10 км {дождь} 6/6 1140 м
[Sc]
+7.9 +0.7 60 +5 +7 по сезону 1014.0 995.2
15 21.03 СВ 4 10 км 3/0
[Ac trans]
+7.0 +1.3 67 +4 +4 по сезону 1015.4 996.5
18 21.03 ЮВ 2 10 км ясно +3.6 +1.0 83 +1 +1 по сезону 1017.6 998.4 +9.1 0.0
21 21.03 штиль 0 7000 м дымка ясно +1.7 +0.3 90 +1 +1 по сезону 1018.6 999.3
00 22.03 штиль 0 1200 м дымка ясно +0.8 +0.3 96 -1 -1 по сезону 1019.6 1000.2
03 22.03 СЗ 1 700 м туман 3/0
[Ci fib]
-0.2 -0.2 100 -3 -3 по сезону 1020.7 1001.2
06 22.03 СЗ 2 3200 м дымка {туман} ясно +2.8 +1.8 93 -0 +3 по сезону 1021.4 1002.1 -1.5
09 22.03 СЗ 2 10 км 3/0
[Ci fib]
+10.6 -0.4 46 +10 +19 тепло 1020.8 1002.0
12 22.03 СЗ 2 10 км 5/0
[Ci fib]
+13.5 +0.4 41 +13 +19 тепло 1019.7 1001.1
15 22.03 Ю 1 10 км 5/0
[Ac und Ci fib]
+13.8 +1.2 42 +14 +15 тепло 1019.3 1000.8
18 22.03 ЮВ 2 10 км 4/0
[Ci fib]
+9.2 +0.5 54 +8 +8 тепло 1020.6 1001.7 +14.6
21 22.03 ЮВ 2 10 км ясно +5.5 +0.3 69 +3 +3 тепло 1020.9 1001.8
00 23.03 ЮВ 1 10 км 4/0
[Ci fib]
+5.2 +0.8 73 +4 +4 тепло 1021.0 1001.9
03 23.03 Ю 1 10 км 5/0
[Ci fib]
+3.2 +0.6 83 +2 +2 тепло 1021.5 1002.2
06 23.03 Ю 2 10 км 5/0
[Ac trans Ci sp]
+7.9 +0.9 61 +6 +9 тепло 1021.6 1002.6 +1.4
09 23.03 З 3 10 км 9/0
[Ac trans]
+14.1 +2.6 46 +13 +17 тепло 1021.5 1002.9
12 23.03 ЮЗ 4 10 км в посл. час дождь 10/10 1200 м
[Sc]
+13.6 +3.6 51 +12 +12 тепло 1021.7 1003.1
15 23.03 С 4 10 км 10/10 930 м
[Sc]
+10.3 +5.5 72 +8 +8 тепло 1023.0 1004.2
18 23.03 С 3 5000 м дымка {ливн. осадки} 10/10 240 м
[Sc]
+8.4 +6.7 89 +6 +6 тепло 1024.6 1005.6 +15.0 0.0
21 23.03 СВ 2 10 км слабый дождь 9/9 270 м
[Sc]
+7.7 +5.9 88 +6 +6 тепло 1024.9 1005.9
00 24.03 В 2 10 км {дождь} 10/10 330 м
[Sc]
+7.1 +5.3 88 +5 +5 тепло 1024.8 1005.7
03 24.03 В 2 5000 м слабый ливневой дождь 10/10 210 м
[Cb cap]
+6.3 +5.2 93 +4 +4 тепло 1024.2 1005.1
06 24.03 ЮВ 4 4100 м в посл. час ливневой дождь 10/10 180 м
[Cb cap]
+6.6 +5.5 93 +3 +3 тепло 1023.2 1004.1 +6.1 0.8
09 24.03 ЮВ 5 3900 м дымка {дождь} 9/8 180 м
[Sc Ac trans]
+9.4 +7.9 90 +6 +7 тепло 1020.3 1001.5
12 24.03 Ю 6 10 км {дождь} 9/5 1000 м
[Sc Ac trans]
+13.5 +3.5 51 +12 +12 тепло 1016.7 998.2
15 24.03 ЮЗ 5 10 км {ливн. осадки} 9/6 1000 м
[Sc Ac trans]
+12.0 +3.2 55 +10 +10 тепло 1015.5 996.9
18 24.03 ЮЗ 5 10 км {ливн. осадки} 10/10 1140 м
[Sc]
+11.6 +2.9 55 +9 +9 тепло 1014.4 995.8 +14.2 0.0
21 24.03 СЗ 5 10 км слабый дождь 10/10 330 м
[Sc]
+8.7 +6.5 86 +5 +5 тепло 1014.6 995.8
00 25.03 СЗ 6 10 км {ливн. осадки, дождь} 9/9 500 м
[Cb cap]
+4.2 +1.9 85 -1 -1 по сезону 1016.8 997.7
03 25.03 СЗ 5 10 км 8/8 300 м
[Sc]
+3.8 +0.4 78 -1 -1 по сезону 1017.7 998.5
06 25.03 СЗ 6 10 км 8/5 400 м
[St Ac trans]
+2.8 -0.8 77 -3 -2 по сезону 1019.1 999.8 +1.8 1
09 25.03 СЗ 7 10 км 8/8 600 м
[Cb cap]
+5.8 -5.2 45 +1 +2 по сезону 1018.5 999.4
12 25.03 С 6 10 км 9/4 1000 м
[Sc diur, vesp Ac trans Ci fib]
+6.0 -9.5 32 +2 +3 по сезону 1017.9 998.8
15 25.03 З 3 10 км 9/4 1000 м
[Sc Cs]
+5.2 -10.0 32 +3 +3 по сезону 1017.0 997.9
18 25.03 штиль 0 10 км 10/0
[As op]
+3.2 -8.6 42 +3 +3 по сезону 1016.8 997.6 +7.2
21 25.03 штиль 0 5000 м мгла 10/0
[Ac As]
+1.5 -5.9 58 +1 +1 по сезону 1016.7 997.4
00 26.03 штиль 0 7000 м мгла 10/0
[Ac und]
+1.1 -5.2 63 0 0 по сезону 1016.2 996.8
03 26.03 В 1 7000 м дымка 9/0
[Ac trans Ci fib]
-0.7 -5.3 71 -2 -2 по сезону 1016.2 996.7
06 26.03 ЮВ 1 10 км {туман} 9/0
[Ac trans]
+3.4 -6.0 50 +3 +5 тепло 1016.9 997.7 -1.5
09 26.03 С 1 10 км 8/6 1000 м
[Cu med, cong Ci fib]
+6.0 -6.1 41 +6 +10 тепло 1016.4 997.4
12 26.03 ЮВ 2 10 км 9/5 1000 м
[Cu med, cong Ac trans]
+5.8 -6.4 41 +4 +6 по сезону 1016.0 997.0
15 26.03 С 2 10 км 9/5 1000 м
[Sc diur, vesp Ac trans]
+5.6 -6.8 40 +4 +4 по сезону 1016.0 997.0
18 26.03 С 3 10 км 9/0
[Ac trans]
+4.4 -5.3 49 +1 +1 по сезону 1016.4 997.3 +6.4
21 26.03 З 2 10 км 5/0
[Ac trans]
+1.8 -4.3 64 -1 -1 по сезону 1016.0 996.7
00 27.03 З 2 10 км 8/0
[Ci fib]
-0.2 -4.6 72 -4 -4 по сезону 1014.0 994.6
03 27.03 З 4 10 км 9/0
[Ac trans]
-0.1 -3.8 76 -5 -5 прохладно 1010.5 991.2
06 27.03 ЮЗ 7 10 км в посл. час ливневой снег 10/10 600 м
[Cb cap]
+1.2 -2.6 76 -5 -5 прохладно 1007.1 987.9 -1.5 0.0
09 27.03 З 7 10 км слабый ливневой дождь со снегом 10/10 300 м
[Cb cap]
+1.4 +0.3 92 -5 -5 холодно 1005.8 986.7
12 27.03 З 6 10 км {ливн. осадки} 8/6 600 м
[Cb cap Ac trans]
+6.4 +0.3 65 +2 +3 по сезону 1004.8 986.0

 

Местоположение метеостанции Харьков (Харьковская область, Украина): широта 49.97 долгота 36.13 высота над уровнем моря 155 м.

В архиве по умолчанию представлена погода в Харькове за последнюю неделю. Архивные данные за месяц целиком и за предыдущие месяцы, начиная с января 2011 года, Вы можете получить, выбрав интересующий диапазон дат из раскрывающегося списка и нажав кнопку "Ввод!".

Внимание! Время в таблицах - всемирное. Для получения местного времени необходимо прибавить поправку, которая в Харькове равна 2 ч.

Смотрите также архив погоды в соседних городах и на ближайших метеорологических станциях:

Погода в Золочеве (Львовская область, Украина) (39 км)
Погода в Боходухове (Харьковская область, Украина) (50 км)
Погода в Комсомольском (Донецкая область, Украина) (50 км)
Погода в Коломаке (Харьковская область, Украина) (66 км)
Погода в Белгороде (Белгородская область, Россия) (80 км)
Погода в Краснограде (Харьковская область, Украина) (82 км)
Погода в Великом Бурлуке (Харьковская область, Украина) (90 км)
Погода в Готне (Белгородская область, Россия) (96 км)
Погода в Купянске (Харьковская область, Украина) (119 км)
Погода в Лозовой (Харьковская область, Украина) (120 км)

Пояснения к столбцам:

Ветер - указаны скорость ветра в м/с - средняя за 10 мин, порывы в срок и между сроками (в фигурных скобках) и направление, откуда дует ветер: С - северный, СВ - северо-восточный, В - восточный, ЮВ - юго-восточный, Ю - южный, ЮЗ - юго-западный, З - западный, СЗ - северо-западный.
Видимость - горизонтальная дальность видимости в метрах или километрах. При видимости от 1 до 10 км при отсутствии осадков обычно наблюдается дымка, при ухудшении видимости до 1 км и менее - туман. В сухую погоду видимость может ухудшаться дымом, пылью или мглою.
Явления - указаны атмосферные явления, наблюдавшиеся в срок или в последний час перед сроком; фигурными скобками обозначены явления, наблюдавшиеся между сроками (за 1-3 часа до срока); квадратными скобками обозначены град или гололедные отложения с указанием их диаметра в мм.
Облачность - указаны через наклонную черту общая и нижняя облачность в баллах и высота нижней границы облаков в метрах; квадратными скобками обозначены формы облаков: Ci - перистые, Cs - перисто-слоистые, Cc - перисто-кучевые, Ac - высококучевые, As - высокослоистые, Sc - слоисто-кучевые, Ns - слоисто-дождевые, Cu - кучевые, Cb - кучево-дождевые. Подробнее классификацию облаков см. в Атласе облаков (PDF).
T - Температура воздуха - температура, измеренная на высоте 2 м над землей.
Td - Температура точки росы - температура, при понижении до которой содержащийся в воздухе водяной пар достигнет насыщения.
f - Относительная влажность воздуха - влажноcть воздуха, измеренная на высоте 2 м над землей.
Te - Эффективная температура - температура, которую ощущает одетый по сезону человек в тени. Характеристика душности погоды. При расчете учитывается влияние влажности воздуха и скорости ветра на теплоощущения человека.
Tes - Эффективная температура на солнце - температура, которую ощущает человек, с поправкой на солнечный нагрев. Характеристика знойности погоды. Зависит от высоты солнца над горизонтом, облачности и скорости ветра. Ночью, в пасмурную погоду, а также при ветре 12 м/с и более поправка равна нулю.
P - Атмосферное давление - приведенное к уровню моря атмосферное давление.
Po - Атмосферное давление - измеренное на уровне метеостанции атмосферное давление.
Tmin - Минимальная температура - минимум температуры воздуха на высоте 2 м над землей.
Tmax - Максимальная температура - максимум температуры воздуха на высоте 2 м над землей.
R - Количество осадков - Количество выпавших осадков, мм. При наведении курсора мыши на число - период времени, за который выпало указанное количество осадков.
S - Снежный покров - Высота снежного покрова, см. При наведении курсора мыши на число - состояние снежного покрова и степень покрытия местности в баллах.